Wind_Speed
23 25 27 31 35 38 40 43 47 51 55 60 65 69 73 78 84 86 89 95 98 95 93 95 97 97 97 94 92 90 82 72 70 70 72 79 80 83 79 74 69 65 65 66 63
29 31 34 37 41 44 46 50 54 59 63 69 75 79 84 87 91 95 97 98 101 102 104 102 103 105 105 102 101 97 86 77 80 80 81 83 87 88 86 79 72 68 70 70 67
34 37 40 43 47 50 53 56 61 67 73 78 83 89 93 98 102 102 105 108 110 109 110 111 112 112 108 109 105 103 90 89 87 86 87 89 92 90 88 81 76 74 76 75 70
37 40 44 47 51 58 62 66 71 77 82 87 91 92 94 95 105 114 118 120 120 120 121 121 121 121 117 115 113 111 98 97 95 93 90 90 96 92 90 84 85 85 82 78 77
41 44 47 51 57 64 70 77 84 88 91 93 90 86 85 90 93 103 117 127 131 131 130 129 129 129 125 121 118 115 102 102 103 101 98 95 97 95 90 88 86 84 82 80 78
39 45 51 56 63 70 77 83 89 94 96 94 89 79 74 76 80 89 98 109 121 132 136 137 137 137 134 127 129 115 110 111 107 105 104 101 101 100 93 91 87 83 81 80 79
41 48 56 62 70 76 82 89 94 99 105 103 92 72 58 58 64 72 80 90 101 112 124 140 143 144 142 136 132 124 121 115 115 107 105 102 103 95 98 95 91 87 83 80 80
45 53 62 68 74 80 88 97 100 106 111 107 90 73 56 46 44 51 60 69 76 87 102 125 134 145 149 144 140 133 129 123 112 111 105 109 94 103 99 97 93 89 86 83 84
50 59 66 73 79 86 93 98 104 110 117 113 104 88 74 60 51 46 42 53 65 70 83 102 117 130 142 149 149 144 137 131 118 113 112 107 94 101 101 98 94 90 86 83 83
53 62 69 75 82 87 94 98 105 113 119 119 105 83 70 62 53 48 45 43 55 65 72 87 94 110 124 138 145 150 143 139 128 123 115 108 98 100 101 101 97 92 87 83 80
57 64 69 75 84 89 94 99 107 113 116 123 108 85 70 68 58 45 38 33 35 54 65 72 82 94 108 120 132 142 148 143 136 131 124 113 106 100 106 102 99 94 89 83 78
59 66 71 77 86 90 95 99 105 105 113 119 102 85 74 64 55 46 29 29 28 38 47 57 69 79 90 101 116 128 137 138 140 136 131 124 114 111 109 101 99 96 89 86 83
60 66 73 80 87 93 96 99 101 104 109 116 98 83 71 61 53 48 37 26 26 28 34 42 56 72 82 88 98 112 121 131 131 138 135 131 126 120 109 107 103 98 93 89 85
60 66 73 80 86 92 98 101 101 103 109 109 103 86 75 70 60 43 35 28 24 22 23 30 40 54 71 81 86 95 102 115 126 129 135 136 133 125 116 108 107 103 96 89 84
61 67 74 78 86 93 99 102 102 103 108 111 109 100 89 75 61 50 40 31 24 21 16 22 30 40 54 71 79 82 92 101 111 122 128 132 138 128 125 116 108 101 98 94 89
61 67 76 81 86 92 98 102 100 102 103 107 109 100 87 78 70 56 43 34 27 20 15 13 20 28 39 55 67 75 81 90 99 107 118 127 133 135 134 119 114 111 103 100 93
60 67 74 78 85 92 98 103 101 105 106 111 109 102 97 84 72 60 52 43 33 23 16 10 11 20 30 43 56 65 73 77 86 96 107 117 126 132 133 123 115 112 109 105 101
62 69 74 79 85 91 98 102 100 101 103 107 119 112 96 86 79 69 59 46 37 29 21 12 5 12 21 33 46 59 65 67 74 84 94 105 113 126 130 129 121 115 112 109 105
62 67 74 78 82 88 97 96 99 101 105 109 113 119 108 100 89 78 65 54 44 35 27 19 7 5 12 21 35 49 55 58 63 69 77 89 102 110 120 128 127 120 118 114 107
61 66 72 76 80 86 89 94 101 101 107 112 113 117 120 107 97 86 74 63 53 42 33 25 14 1 9 17 29 41 46 48 52 59 63 77 91 101 111 123 126 120 118 117 112
61 65 71 75 80 84 87 92 101 103 108 111 116 119 120 125 114 96 86 74 62 52 40 31 22 9 3 9 19 29 38 41 43 47 55 63 78 92 101 114 124 123 116 115 112
60 64 70 73 78 81 86 94 98 104 107 110 113 117 121 121 121 104 94 84 72 61 50 36 29 20 5 6 12 21 29 32 35 38 44 53 64 79 90 104 118 126 122 117 116
58 63 67 72 77 81 86 92 97 100 105 109 114 119 123 125 126 118 111 97 82 71 59 46 35 26 14 2 8 17 25 29 31 32 39 48 57 70 81 95 110 123 125 120 120
57 60 66 71 77 82 84 90 94 98 100 103 110 117 123 125 129 126 123 114 99 81 69 58 46 33 23 13 1 9 18 23 23 25 33 41 51 60 69 82 99 114 124 122 120
56 59 67 72 75 80 82 88 93 96 97 100 105 110 116 123 124 129 126 124 119 95 79 68 57 44 31 21 11 4 9 15 23 27 29 35 44 51 62 73 88 103 117 121 120
55 58 65 69 75 78 80 85 89 94 98 99 103 107 112 116 121 123 126 123 122 119 99 79 67 55 42 30 19 11 6 11 19 27 31 33 39 45 53 63 78 92 105 117 121
55 59 62 68 73 76 78 81 86 90 95 97 100 104 108 112 118 120 123 125 123 120 116 100 81 65 54 41 29 17 10 9 17 26 29 32 38 43 51 59 66 80 92 101 114
Wind_Direction
306 305 302 299 294 289 287 285 282 279 276 272 267 264 262 260 255 252 253 253 250 250 250 250 250 250 250 249 246 243 239 237 237 236 238 243 244 245 243 241 239 239 244 245 244
302 303 302 301 299 295 291 287 284 280 277 274 271 268 265 262 260 257 253 249 248 248 248 249 249 249 249 248 247 245 239 238 241 237 237 240 242 243 242 240 238 238 242 244 244
306 304 306 307 304 301 298 293 290 287 284 280 275 270 267 263 260 257 255 253 250 246 245 246 246 245 245 245 245 245 240 240 240 238 237 238 242 243 245 243 241 240 242 243 244
305 306 307 305 306 308 309 305 301 299 296 293 290 284 278 272 266 257 252 250 248 246 244 244 242 244 243 244 243 242 240 239 237 236 235 238 240 243 243 243 242 240 241 244 244
308 309 310 313 317 316 314 312 311 311 309 305 302 298 288 277 269 260 253 250 248 245 243 243 243 242 240 241 240 241 237 237 236 234 234 235 239 241 242 241 241 242 243 245 246
320 320 324 325 322 322 323 320 319 317 317 319 321 312 297 282 272 265 259 254 249 246 246 244 243 243 241 239 239 238 236 234 234 233 233 234 237 240 242 243 243 242 241 243 245
333 334 329 332 333 332 329 326 325 326 328 331 329 321 308 290 277 270 261 254 248 244 243 243 242 242 243 241 237 236 233 233 233 232 232 233 235 241 242 242 242 242 240 240 243
340 337 340 339 337 334 335 332 332 332 331 336 340 334 322 306 284 274 270 263 252 245 242 240 238 238 240 240 239 236 234 231 231 230 230 233 233 237 238 240 240 240 241 241 243
343 346 344 341 338 339 337 336 336 336 335 345 346 341 333 321 310 298 278 268 261 247 241 240 239 237 236 237 236 236 233 232 227 229 229 229 227 236 236 238 238 237 238 238 241
347 348 346 346 343 343 342 340 340 339 343 348 344 339 332 320 318 312 294 270 255 251 239 239 236 235 235 235 235 236 234 231 226 226 227 229 223 231 233 235 236 235 235 236 237
349 349 346 347 348 345 346 346 343 344 346 348 346 343 341 331 333 321 302 281 263 251 247 236 234 232 233 233 234 233 234 231 227 225 225 225 222 224 233 233 235 235 234 234 234
351 348 351 351 352 350 350 350 347 352 350 347 348 346 346 340 335 331 323 297 277 259 250 243 234 233 234 232 231 233 234 232 229 226 224 223 222 221 228 230 233 233 232 231 231
354 351 352 355 355 355 354 353 354 3 354 349 355 351 350 351 347 339 337 319 289 271 256 245 236 230 229 231 229 231 231 232 228 227 225 221 221 221 226 229 229 231 229 228 228
356 354 354 358 357 358 358 356 2 6 350 353 357 359 359 359 357 347 347 335 312 290 260 246 240 233 228 229 230 229 228 229 229 228 225 222 221 220 221 229 230 229 228 226 227
354 354 356 358 358 1 0 -0 7 0 355 2 1 4 2 1 2 -0 352 347 333 315 280 250 238 235 231 227 227 227 226 226 226 227 225 222 220 219 218 224 227 229 229 226 225
356 353 355 358 1 1 1 4 7 358 3 11 7 8 8 7 4 5 3 357 352 336 315 274 243 233 229 227 224 225 225 225 226 225 224 223 221 217 218 218 222 224 226 226 224
354 354 354 358 1 1 3 9 2 0 9 16 17 14 11 13 12 10 8 4 2 358 343 303 245 230 226 224 222 221 225 225 226 226 224 223 222 217 217 215 220 225 225 224 224
356 357 354 0 0 2 6 9 1 10 16 22 24 19 15 17 15 14 12 12 10 9 4 340 268 221 222 221 217 217 223 225 225 226 224 224 223 218 218 214 216 220 223 225 224
354 356 355 -0 358 1 9 5 8 12 19 24 27 28 23 20 19 18 18 16 15 14 14 3 341 218 211 217 219 218 222 225 226 224 223 225 223 221 216 216 213 217 222 224 222
353 355 354 359 358 3 6 5 11 13 18 23 26 29 29 25 22 21 22 20 18 19 19 16 6 334 191 204 210 214 222 227 229 227 223 221 221 222 216 215 213 216 221 222 223
351 354 354 359 358 4 3 6 12 14 18 23 26 29 29 32 29 23 23 23 22 21 21 20 17 4 171 193 209 218 220 222 226 225 220 220 219 221 219 215 214 216 220 224 223
350 353 355 358 359 1 3 7 10 14 17 20 24 27 30 31 31 29 25 24 25 23 21 22 21 17 13 169 197 215 224 228 226 222 217 218 218 221 217 214 216 215 216 222 223
349 351 355 357 358 0 4 6 11 13 17 20 23 26 28 31 33 32 30 26 25 25 23 23 23 23 10 6 190 195 215 220 221 219 214 215 213 218 217 215 215 215 215 220 223
346 350 352 356 358 -0 4 6 10 13 16 20 23 25 26 28 30 32 34 31 27 25 25 23 22 23 20 9 291 204 211 212 213 216 214 213 214 216 217 216 215 216 215 217 222
345 349 352 355 358 359 4 7 9 11 13 17 21 24 26 26 28 30 31 33 31 27 25 25 23 21 20 16 3 257 222 210 205 210 214 212 216 214 214 214 215 216 219 216 220
346 348 352 355 360 359 4 8 8 11 12 13 16 21 24 25 27 27 29 31 32 32 29 25 25 23 21 17 12 349 256 206 203 208 216 210 214 214 215 214 213 215 218 218 217
345 348 352 355 360 359 2 7 9 10 12 13 16 19 21 22 24 26 26 28 30 31 33 31 26 25 22 18 13 10 341 260 216 208 216 216 215 213 215 215 214 215 217 219 220
Height
10697 10694 10691 10687 10682 10678 10675 10670 10665 10658 10652 10646 10639 10632 10624 10613 10606 10605 10601 10599 10600 10599 10601 10596 10602 10604 10606 10621 10626 10632 10652 10678 10685 10687 10684 10668 10672 10674 10688 10703 10719 10730 10731 10733 10742
10692 10688 10684 10680 10675 10669 10664 10658 10652 10645 10639 10629 10617 10608 10597 10590 10580 10575 10573 10571 10569 10572 10570 10569 10571 10575 10578 10592 10598 10611 10637 10660 10656 10663 10664 10652 10645 10657 10666 10688 10707 10718 10717 10718 10728
10684 10680 10677 10672 10665 10658 10652 10646 10638 10628 10617 10605 10595 10581 10567 10553 10545 10546 10537 10532 10534 10536 10534 10534 10534 10537 10550 10558 10575 10590 10623 10627 10632 10637 10640 10637 10624 10639 10654 10677 10694 10700 10699 10703 10715
10677 10673 10670 10663 10656 10648 10639 10630 10619 10608 10594 10577 10559 10544 10527 10516 10500 10496 10487 10482 10485 10489 10491 10493 10495 10502 10518 10528 10540 10551 10588 10597 10606 10612 10619 10621 10603 10625 10637 10657 10664 10678 10684 10692 10704
10672 10667 10661 10655 10647 10635 10623 10610 10593 10575 10555 10534 10514 10494 10474 10454 10446 10436 10432 10434 10438 10442 10447 10454 10456 10464 10482 10498 10502 10526 10557 10565 10574 10588 10597 10602 10592 10602 10620 10635 10647 10662 10675 10680 10689
10666 10660 10653 10646 10636 10623 10607 10589 10569 10547 10521 10495 10469 10444 10423 10410 10398 10389 10385 10385 10393 10401 10406 10414 10420 10424 10441 10464 10467 10508 10516 10530 10544 10560 10573 10584 10576 10582 10605 10616 10630 10647 10660 10665 10672
10661 10654 10646 10635 10623 10607 10590 10568 10545 10519 10488 10458 10432 10407 10387 10372 10357 10345 10339 10336 10341 10348 10356 10362 10374 10384 10403 10426 10438 10466 10478 10496 10509 10535 10553 10561 10567 10586 10583 10594 10609 10626 10643 10649 10654
10657 10647 10636 10623 10609 10592 10570 10546 10519 10492 10458 10427 10394 10369 10350 10337 10328 10317 10308 10299 10300 10305 10316 10311 10324 10343 10358 10382 10399 10428 10441 10458 10492 10508 10526 10535 10579 10542 10558 10571 10589 10605 10622 10635 10638
10651 10640 10627 10613 10596 10575 10554 10524 10497 10467 10430 10390 10358 10334 10319 10305 10295 10285 10283 10272 10264 10270 10276 10271 10289 10303 10318 10336 10356 10378 10407 10432 10465 10480 10492 10519 10550 10527 10541 10551 10567 10586 10601 10615 10622
10643 10632 10619 10604 10583 10563 10538 10510 10476 10446 10403 10367 10347 10329 10306 10286 10276 10261 10248 10242 10235 10235 10239 10241 10258 10270 10285 10298 10315 10341 10370 10398 10433 10450 10470 10501 10523 10514 10517 10531 10545 10565 10582 10597 10609
10635 10624 10613 10596 10576 10554 10526 10496 10461 10426 10389 10356 10324 10304 10289 10257 10248 10238 10226 10217 10215 10210 10214 10222 10231 10238 10245 10265 10288 10303 10325 10365 10401 10422 10447 10478 10486 10498 10489 10509 10523 10547 10565 10580 10593
10628 10618 10604 10588 10569 10546 10520 10489 10458 10420 10380 10357 10318 10289 10269 10250 10230 10215 10212 10201 10198 10194 10199 10206 10214 10223 10230 10243 10260 10275 10298 10329 10366 10393 10420 10439 10467 10469 10467 10495 10505 10523 10546 10563 10572
10626 10612 10596 10578 10561 10536 10513 10486 10453 10416 10379 10347 10320 10283 10266 10244 10224 10202 10195 10187 10182 10181 10182 10187 10190 10197 10208 10222 10237 10250 10275 10300 10335 10360 10389 10414 10426 10447 10464 10469 10483 10502 10523 10538 10556
10622 10608 10593 10574 10554 10531 10506 10478 10443 10414 10386 10348 10312 10284 10257 10227 10211 10201 10188 10179 10172 10170 10170 10171 10176 10183 10194 10206 10219 10235 10256 10271 10298 10327 10351 10379 10407 10427 10450 10452 10463 10482 10504 10526 10543
10615 10602 10590 10573 10551 10526 10504 10472 10436 10410 10373 10335 10297 10262 10236 10223 10211 10195 10183 10174 10166 10161 10161 10161 10164 10171 10181 10191 10204 10221 10233 10248 10268 10294 10321 10350 10367 10413 10410 10416 10450 10471 10488 10506 10523
10613 10597 10582 10564 10544 10526 10502 10472 10446 10424 10381 10345 10301 10277 10252 10228 10205 10193 10181 10171 10163 10156 10155 10155 10157 10162 10169 10179 10193 10203 10216 10230 10246 10268 10291 10318 10342 10371 10379 10411 10420 10437 10461 10482 10500
10610 10596 10582 10563 10542 10524 10501 10470 10454 10416 10380 10340 10315 10286 10248 10233 10214 10199 10180 10167 10160 10155 10151 10150 10151 10155 10160 10168 10180 10195 10202 10217 10230 10247 10266 10284 10312 10339 10359 10398 10407 10424 10439 10456 10475
10604 10590 10576 10558 10539 10522 10498 10473 10463 10424 10394 10359 10321 10291 10270 10248 10220 10198 10182 10171 10163 10157 10151 10149 10149 10151 10155 10162 10172 10181 10191 10205 10218 10228 10250 10266 10288 10310 10346 10373 10388 10400 10415 10430 10453
10600 10587 10571 10555 10541 10523 10493 10489 10458 10430 10400 10369 10342 10310 10275 10247 10224 10206 10192 10177 10166 10159 10154 10150 10149 10150 10153 10159 10168 10176 10186 10196 10205 10220 10238 10252 10269 10289 10326 10347 10366 10377 10388 10406 10431
10598 10585 10571 10558 10542 10522 10505 10489 10457 10432 10402 10372 10343 10316 10286 10261 10236 10218 10202 10186 10173 10164 10158 10153 10152 10151 10152 10156 10162 10171 10181 10190 10198 10210 10226 10239 10251 10270 10299 10319 10348 10361 10370 10387 10411
10595 10583 10570 10555 10540 10521 10509 10484 10459 10432 10405 10379 10353 10326 10299 10272 10247 10229 10209 10193 10181 10170 10163 10158 10155 10155 10154 10156 10160 10167 10176 10184 10191 10202 10215 10226 10237 10250 10273 10298 10319 10337 10356 10369 10390
10593 10582 10568 10554 10540 10526 10504 10480 10457 10434 10410 10386 10363 10341 10314 10287 10264 10244 10220 10203 10190 10179 10170 10164 10160 10159 10158 10158 10160 10165 10172 10180 10186 10194 10205 10214 10226 10236 10254 10275 10295 10313 10336 10351 10366
10591 10579 10568 10554 10539 10522 10502 10482 10462 10440 10418 10395 10370 10345 10321 10299 10281 10254 10232 10213 10200 10188 10179 10173 10165 10163 10162 10162 10162 10164 10168 10174 10182 10190 10197 10205 10216 10223 10238 10256 10273 10290 10313 10331 10345
10590 10579 10568 10554 10536 10520 10503 10485 10466 10446 10428 10406 10383 10358 10332 10312 10288 10271 10253 10232 10214 10201 10190 10180 10174 10168 10165 10165 10166 10166 10167 10172 10180 10187 10191 10197 10204 10214 10228 10245 10258 10272 10290 10311 10327
10587 10576 10563 10550 10537 10520 10502 10484 10467 10449 10430 10411 10392 10371 10351 10328 10308 10285 10261 10245 10231 10215 10201 10189 10182 10176 10170 10168 10169 10168 10169 10173 10178 10182 10187 10192 10196 10205 10215 10228 10245 10260 10272 10295 10312
10583 10574 10562 10549 10535 10520 10504 10487 10471 10453 10435 10416 10396 10377 10359 10341 10323 10306 10286 10267 10250 10232 10215 10201 10191 10184 10177 10172 10170 10171 10172 10173 10177 10180 10182 10188 10193 10198 10206 10217 10229 10240 10253 10269 10286
10580 10570 10559 10547 10534 10522 10506 10491 10475 10457 10441 10424 10406 10386 10366 10350 10331 10314 10297 10281 10262 10247 10232 10216 10202 10192 10185 10179 10175 10173 10172 10174 10175 10178 10180 10183 10187 10193 10198 10206 10218 10230 10241 10255 10274